Flag for U.S.A. Weather past 2 weeks in Dover, Delaware, U.S.A.

Now
55 °F

Broken clouds.


Feels Like: 51 °F
Forecast: 44 / 59 °F
Wind: 14 mph from East

Location: Dover Air Force Base


UV Index: 5 (Moderate)

Visibility: 10 mi


Pressure: 30.42 "Hg

Humidity: 52%

Dew point: 37 °F

Location of DoverLocation

Historic Weather in Dover

°F

Dover temperature yesterday

Maximum temperature yesterday: 67 °F (at 3:58 PM)
Minimum temperature yesterday: 39 °F (at 4:58 AM)
Average temperature yesterday: 50 °F

Past Weeks' High & Low Weather Summary

 TemperatureHumidityPressure
High81 °F (Apr 13, 1:58 PM)100% (Apr 7, 9:58 AM)30.66 "Hg (Apr 7, 9:58 AM)
Low31 °F (Apr 16, 6:58 AM)26% (Apr 6, 1:58 PM)29.45 "Hg (Apr 8, 8:58 AM)
Average54 °F68%30.08 "Hg
* Reported Apr 5 12:58 PM — Apr 20 12:58 PM, Dover, Weather by CustomWeather, © 2014

Note: Actual official high and low records may vary slightly from our data, if they occured in-between our weather recording intervals... More about our weather records

Advertising

Historic Weather Conditions — Data for Previous 24 hours

 ConditionsComfort  
Time TempWeatherWind HumidityBarometerVisibility
12:58 PM
Apr 20
55 °FBroken clouds.14 mph52%30.42 "Hg10 mi
11:58 AM55 °FPassing clouds.17 mph53%30.44 "Hg10 mi
10:58 AM54 °FPassing clouds.13 mph52%30.43 "Hg10 mi
9:58 AM53 °FPassing clouds.17 mph51%30.42 "Hg10 mi
8:58 AM50 °FSunny.16 mph54%30.40 "Hg10 mi
7:58 AM49 °FSunny.20 mph64%30.37 "Hg10 mi
6:58 AM48 °FClear.18 mph73%30.34 "Hg10 mi
5:58 AM49 °FClear.16 mph60%30.31 "Hg10 mi
4:58 AM47 °FClear.8 mph78%30.32 "Hg10 mi
3:58 AM45 °FClear.9 mph100%30.31 "Hg10 mi
2:58 AM43 °FClear.8 mph100%30.29 "Hg10 mi
1:58 AM43 °FClear.6 mph100%30.29 "Hg10 mi
12:58 AM44 °FClear.7 mph98%30.29 "Hg10 mi
11:58 PM
Apr 19
44 °FClear.3 mph96%30.28 "Hg10 mi
10:58 PM48 °FClear.2 mph81%30.28 "Hg10 mi
9:58 PM49 °FClear.3 mph81%30.28 "Hg10 mi
8:58 PM49 °FClear.3 mph82%30.27 "Hg10 mi
7:58 PM51 °FSunny.6 mph71%30.25 "Hg10 mi
6:58 PM53 °FSunny.9 mph70%30.23 "Hg10 mi
5:58 PM57 °FSunny.9 mph69%30.22 "Hg10 mi
4:58 PM66 °FSunny.14 mph31%30.20 "Hg10 mi
3:58 PM67 °FSunny.13 mph31%30.20 "Hg10 mi
2:58 PM67 °FPassing clouds.8 mph36%30.22 "Hg10 mi
1:58 PM63 °FSunny.8 mph42%30.23 "Hg10 mi
Weather by CustomWeather, © 2014

See weather overview